Weather Service Report


936 
FPUS83 KFGF 170031
OPUFGF
PRAIRIE TO PINES WEATHER ROUNDUP
NATIONAL WEATHER SERVICE EASTERN NORTH DAKOTA/GRAND FORKS ND
700 PM CDT MON OCT 16 2017

 **SATELLITE DATA USED TO AUGMENT SKY COVER AT AUTOMATED STATIONS**
 *****  WEATHER ACROSS EASTERN NORTH DAKOTA  *****
  
CITY           SKY/WX    TMP DP  RH WIND       PRES   REMARKS
GRAND FORKS    FAIR      59  37  44 W6        29.85R                  
6HR MIN TEMP:  59; 6HR MAX TEMP:  72;                                

GRAND FORKS AF FAIR      58  36  43 W8        29.85R                  
GRAND CITY NWS NOT AVBL                                               
BUXTON           N/A    N/A N/A N/A W6          N/A                   
DEVILS LAKE    FAIR      57  36  45 W8        29.89R                  
6HR MIN TEMP:  57; 6HR MAX TEMP:  66;                                

FARGO          FAIR      59  39  47 SW3       29.87R                  
6HR MIN TEMP:  59; 6HR MAX TEMP:  71;                                

WAHPETON ARPT  NOT AVBL                                               
$$

 *****  WEATHER ACROSS CENTRAL AND WESTERN NORTH DAKOTA  *****
  
CITY           SKY/WX    TMP DP  RH WIND       PRES   REMARKS
JAMESTOWN      FAIR      56  34  43 NW9       29.90R                  
6HR MIN TEMP:  56; 6HR MAX TEMP:  71;                                

BISMARCK       FAIR      63  32  31 NW3       29.95R                  
6HR MIN TEMP:  63; 6HR MAX TEMP:  74;                                

MINOT          FAIR      59  35  40 W8        29.91R                  
6HR MIN TEMP:  59; 6HR MAX TEMP:  70;                                

MINOT AFB      FAIR      56  34  43 W8        29.89R                  
6HR MIN TEMP:  56; 6HR MAX TEMP:  68;                                

GARRISON         N/A     54  33  45 W7        29.94R                  
6HR MIN TEMP:  54; 6HR MAX TEMP:  69;                                

WILLISTON      FAIR      61  32  33 W6        29.94S                  
6HR MIN TEMP:  60; 6HR MAX TEMP:  69;                                

DICKINSON      FAIR      57  31  37 W9        29.98R                  
6HR MIN TEMP:  57; 6HR MAX TEMP:  69;                                

HETTINGER      FAIR      57  29  34 W9        30.02R                  
6HR MIN TEMP:  57; 6HR MAX TEMP:  70;                                

$$

 *****  OTHER OBSERVATIONS NORTHEAST NORTH DAKOTA  *****
  
CITY           SKY/WX    TMP DP  RH WIND       PRES   REMARKS
WALHALLA       FAIR     N/A N/A N/A W6        29.83S                  
LANGDON        FAIR      55  34  44 W8        29.87R                  
CAVALIER       FAIR      59  37  44 W5        29.83R                  
GRAFTON        FAIR      54  37  54 W7        29.85S                  
CANDO          FAIR      50  34  53 W7        29.91R                  
FORT TOTTEN      N/A     60  36  40 NW2       29.95S                  
ROLLA          FAIR      50  32  50 SW7       29.88S                  
RUGBY          FAIR      52  36  54 NW5       29.90R                  
 ***** THE ABOVE OBSERVATIONS ARE NON NWS ARE NOT QUALITY
        CONTROLLED AND MAY MIS-REPORT RAIN FOR SNOW...
$$

 *****  OTHER OBSERVATIONS SOUTHEAST NORTH DAKOTA *****
  
CITY           SKY/WX    TMP DP  RH WIND       PRES   REMARKS
COOPERSTOWN    FAIR      50  34  53 W8        29.90R                  
VALLEY CITY    FAIR      55  34  44 W8        29.92R                  
OAKES          NOT AVBL                                               
GWINNER        CLEAR     55  41  58 CALM      29.91R                  
SHEYENNE NWR     N/A     58  42  54 SW3       29.95S                  
BUFFALO          N/A     58  27  30 W8          N/A                   
WYNDMERE       NOT AVBL                                               
 ***** THE ABOVE OBSERVATIONS ARE NON NWS ARE NOT QUALITY
       CONTROLLED AND MAY MIS-REPORT RAIN FOR SNOW...
$$

  *****  WEATHER ACROSS NORTHERN MINNESOTA  *****     
  
CITY           SKY/WX    TMP DP  RH WIND       PRES   REMARKS
FLAG ISLAND    FAIR      57  37  47 SW8       29.75S                  
WARROAD        FAIR      55  41  58 SW8       29.80S                  
ROSEAU           N/A     57  39  51 SW10      29.80F                  
HALLOCK        FAIR      54  34  47 W7        29.82R                  
THF RVR FALLS  FAIR      59  36  42 W10       29.86R                  
6HR MIN TEMP:  59; 6HR MAX TEMP:  68;                                

HALSTAD          N/A     57  36  44 W6          N/A                   
FOSSTON        FAIR      54  32  43 SW5       29.87R                  
BAUDETTE       FAIR      58  36  43 W8        29.80R                  
6HR MIN TEMP:  58; 6HR MAX TEMP:  66;                                

WASKISH        FAIR      57  41  54 SW12      29.83R                  
CROOKSTON      FAIR      55  36  47 W7        29.86R                  
$$
  *****  WEATHER ACROSS CENTRAL AND WEST MINNESOTA  *****     
  
CITY           SKY/WX    TMP DP  RH WIND       PRES   REMARKS
BEMIDJI        FAIR      57  38  50 S3        29.85S                  
6HR MIN TEMP:  58; 6HR MAX TEMP:  64;                                

PARK RAPIDS    FAIR      55  39  54 SW9       29.88S                  
6HR MIN TEMP:  55; 6HR MAX TEMP:  64;                                

WADENA         FAIR      55  39  54 SW5       29.90S                  
DETROIT LAKES  FAIR      61  37  41 SW6       29.90R                  
MOORHEAD       FAIR      57  43  58 SW7       29.89R                  
FERGUS FALLS   FAIR      55  41  58 SW7       29.92R                  
ELBOW LAKE     FAIR      53  40  61 W7        29.93R                  
6HR MIN TEMP:  53; 6HR MAX TEMP:  68;                                

MORRIS MN      FAIR      57  41  54 SW7       29.93S                  
STAPLES        FAIR      54  37  54 S6        29.90F                  
WHEATON        FAIR      59  39  47 SW6       29.94R                  
$$
  *****  WEATHER ELSEWHERE ACROSS MINNESOTA  *****     
  
CITY           SKY/WX    TMP DP  RH WIND       PRES   REMARKS
DULUTH         FAIR      54  35  48 SW15      29.91F                  
6HR MIN TEMP:  54; 6HR MAX TEMP:  59;                                

INTRNTL FALLS  FAIR      54  35  48 S3        29.79S                  
6HR MIN TEMP:  53; 6HR MAX TEMP:  63;                                

ELY            FAIR      54  32  43 SW7       29.86S                  
CLOQUET        FAIR      54  34  47 S10       29.92F                  
BRAINERD       FAIR      55  38  52 S8        29.92S                  
6HR MIN TEMP:  55; 6HR MAX TEMP:  63;                                

HIBBING        FAIR      54  34  46 S7        29.88S                  
6HR MIN TEMP:  54; 6HR MAX TEMP:  60;                                

ALEXANDRIA     FAIR      60  39  45 SW9       29.94S                  
6HR MIN TEMP:  60; 6HR MAX TEMP:  67;                                

SAINT CLOUD    FAIR      57  39  51 S8        29.95F                  
6HR MIN TEMP:  57; 6HR MAX TEMP:  65;                                

MINNEAPOLIS    FAIR      62  38  40 S7        30.00F                  
6HR MIN TEMP:  58; 6HR MAX TEMP:  66;                                

$$

  *****  WEATHER ACROSS SOUTH DAKOTA  *****
  
CITY           SKY/WX    TMP DP  RH WIND       PRES   REMARKS
SIOUX FALLS    FAIR      68  40  35 SW6       29.99F                  
6HR MIN TEMP:  66; 6HR MAX TEMP:  75;                                

BROOKINGS      FAIR      61  39  44 W6        29.99F                  
WATERTOWN      FAIR      54  43  66 SW8       29.97R                  
6HR MIN TEMP:  52; 6HR MAX TEMP:  67;                                

HURON          FAIR      60  42  51 SW6       29.98F                  
6HR MIN TEMP:  60; 6HR MAX TEMP:  70;                                

SISSETON         N/A     60  43  53 SW10      29.91F                  
ABERDEEN       FAIR      58  42  55 S9        29.94S                  
6HR MIN TEMP:  58; 6HR MAX TEMP:  71;                                

MITCHELL       FAIR      66  39  37 W5        30.00S                  
PIERRE         FAIR      68  38  33 SW3       29.98S                  
6HR MIN TEMP:  58; 6HR MAX TEMP:  74;                                

MOBRIDGE       FAIR      62  40  44 NW5       29.95R                  
RAPID CITY     FAIR      65  28  24 N9        30.07R                  
6HR MIN TEMP:  65; 6HR MAX TEMP:  77;                                

$$

  *****  SOME WEATHER IN NEARBY STATES *****
  
CITY           SKY/WX    TMP DP  RH WIND       PRES   REMARKS
GLASGOW MT     FAIR      64  32  30 SW5       29.93F                  
6HR MIN TEMP:  63; 6HR MAX TEMP:  69;                                

GREAT FALLS MT FAIR      63  18  17 SW17G32   30.04F                  
6HR MIN TEMP:  62; 6HR MAX TEMP:  68;                                

CHEYENNE WY    FAIR      66   6   9 NW12G21   30.25R                  
6HR MIN TEMP:  66; 6HR MAX TEMP:  74;                                

SCOTTSBLUFF NE FAIR      64  22  20 N9        30.14R                  
6HR MIN TEMP:  64; 6HR MAX TEMP:  78;                                

OMAHA NE       FAIR      68  39  34 S13       30.11S                  
6HR MIN TEMP:  68; 6HR MAX TEMP:  74;                                

DES MOINES IA  FAIR      61  39  44 S8        30.15S                  
6HR MIN TEMP:  61; 6HR MAX TEMP:  69;                                

DAVENPORT IA   FAIR      53  37  54 S7        30.23S                  
6HR MIN TEMP:  53; 6HR MAX TEMP:  66;                                

CHICAGO IL     FAIR      57  36  45 SW5       30.21S                  
6HR MIN TEMP:  57; 6HR MAX TEMP:  63;                                

EAU CLAIRE WI  FAIR      54  36  50 S8        30.04F                  
6HR MIN TEMP:  54; 6HR MAX TEMP:  62;                                

LA CROSSE WI   FAIR      56  39  53 S8        30.09F                  
6HR MIN TEMP:  55; 6HR MAX TEMP:  66;                                

$$

  *****  SOME NATIONAL WEATHER *****
  
CITY           SKY/WX    TMP DP  RH WIND       PRES   REMA

Return to Home page


Western Regional Climate Center, wrcc@dri.edu